User: anonymous   Login
Location: Lansingburgh
(42.7845°N, 73.6696°W)
Time: 02:32:14
(UTC+00:00)
Language:

FALCON 9 R/B - Orbit

View from above orbital plane
View from above orbital plane
View from above satellite
View from above satellite

Ground track
Ground track

The orbit data is extracted from the following two-line orbital elements,

1 37253U 10066K   20091.65181379  .00002310  00000-0  19426-3 0  9996
2 37253  34.5319 260.3269 4254371 265.2901  46.4285  6.95039129231207
Epoch (UTC): 31 March 2020 15:38:36
Eccentricity: 0.4254371
inclination: 34.5319°
perigee height: 286 km
apogee height: 10154 km
right ascension of ascending node: 260.3269°
argument of perigee: 265.2901°
revolutions per day: 6.95039129
mean anomaly at epoch: 46.4285°
orbit number at epoch: 23120

The dashed part of the orbit path shows where the satellite is in the earth's shadow,  

DLR